Wisconsin Rapids, WI

6:34 PM CDT on June 22, 2017 (GMT -0500)
Alexander Field South Wood County

Weather History for KISW - August, 2014

Change the Weather History Date:

Sunday, August 10, 2014

  Actual Average Record
Temperature  
Mean Temperature 68 °F -  
Max Temperature 82 °F 78 °F 93 °F (1949)
Min Temperature 54 °F 55 °F 41 °F (1962)
Cooling Degree Days 2    
Growing Degree Days 18 (Base 50)    
Moisture  
Dew Point 57 °F    
Average Humidity 65    
Maximum Humidity 90    
Minimum Humidity 42    
Precipitation  
Precipitation 0.00 in - - ()
Sea Level Pressure  
Sea Level Pressure 30.07 in    
Wind  
Wind Speed 3 mph (ESE)    
Max Wind Speed 8 mph    
Max Gust Speed -    
Visibility 10 miles    
Events      
Averages and records for this station are not official NWS values.
T = Trace of Precipitation, MM = Missing Value Source: NWS Daily Summary

Daily Weather History Graph

Daily Weather History Graph

Search for Another Location

Airport or City:

Trip Planner

Search our weather history database for the weather conditions in past years. The results will help you decide how hot, cold, wet, or windy it might be!

Date:

Astronomy

Aug. 10, 2014 Rise Set
Actual Time 5:56 AM CDT 8:11 PM CDT
Civil Twilight 5:24 AM CDT 8:43 PM CDT
Nautical Twilight 4:44 AM CDT 9:23 PM CDT
Astronomical Twilight 4:00 AM CDT 10:07 PM CDT
Moon 7:55 PM CDT (8/10) 5:51 AM CDT (8/10)
Length of Visible Light 15h 19m
Length of Day
14h 15m
Full, 100% of the Moon is Illuminated
Aug 10
Full
Aug 10
Full
Aug 17
Last Quarter
Aug 25
New
Sep 2
First Quarter

Hourly Weather History & Observations

Time (CDT) Temp. Heat Index Dew Point Humidity Pressure Visibility Wind Dir Wind Speed Gust Speed Precip Events Conditions
12:54 AM 59.0 °F - 53.1 °F 81% 30.11 in 10.0 mi East 4.6 mph - N/A   Clear
1:54 AM 55.9 °F - 53.1 °F 90% 30.12 in 10.0 mi East 3.5 mph - N/A   Clear
2:54 AM 57.0 °F - 52.0 °F 83% 30.13 in 10.0 mi Calm Calm - N/A   Clear
4:54 AM 54.0 °F - 51.1 °F 90% 30.12 in 10.0 mi Calm Calm - N/A   Clear
5:54 AM 55.9 °F - 52.0 °F 87% 30.12 in 10.0 mi Calm Calm - 0.00 in   Clear
6:54 AM 57.9 °F - 54.0 °F 87% 30.12 in 10.0 mi NNE 3.5 mph - N/A   Clear
7:54 AM 64.9 °F - 55.9 °F 73% 30.13 in 10.0 mi ENE 5.8 mph - N/A   Clear
8:54 AM 70.0 °F - 57.0 °F 63% 30.13 in 10.0 mi East 5.8 mph - N/A   Clear
9:54 AM 75.0 °F - 59.0 °F 57% 30.12 in 10.0 mi Calm Calm - N/A   Clear
10:54 AM 77.0 °F - 57.9 °F 52% 30.12 in 10.0 mi SE 8.1 mph - N/A   Clear
11:54 AM 79.0 °F - 57.9 °F 48% 30.11 in 10.0 mi East 8.1 mph - N/A   Scattered Clouds
12:54 PM 80.1 °F 80.2 °F 55.9 °F 43% 30.09 in 10.0 mi Calm Calm - N/A   Clear
1:54 PM 81.0 °F 80.8 °F 55.9 °F 42% 30.07 in 10.0 mi ESE 4.6 mph - N/A   Clear
2:54 PM 81.0 °F 81.0 °F 57.0 °F 44% 30.05 in 10.0 mi Variable 5.8 mph - N/A   Scattered Clouds
3:54 PM 81.0 °F 81.0 °F 57.0 °F 44% 30.04 in 10.0 mi Variable 3.5 mph - N/A   Mostly Cloudy
4:54 PM 80.1 °F 80.4 °F 57.0 °F 45% 30.03 in 10.0 mi West 3.5 mph - N/A   Overcast
5:54 PM 79.0 °F - 57.9 °F 48% 30.03 in 10.0 mi South 4.6 mph - N/A   Overcast
6:54 PM 78.1 °F - 60.1 °F 54% 30.02 in 10.0 mi SW 3.5 mph - N/A   Overcast
7:54 PM 75.0 °F - 62.1 °F 64% 30.01 in 10.0 mi Calm Calm - N/A   Overcast
8:54 PM 72.0 °F - 61.0 °F 68% 30.02 in 10.0 mi SE 4.6 mph - N/A   Scattered Clouds
9:54 PM 70.0 °F - 60.1 °F 71% 30.01 in 10.0 mi Calm Calm - N/A   Partly Cloudy
10:54 PM 68.0 °F - 60.1 °F 76% 30.01 in 10.0 mi SSE 3.5 mph - N/A   Clear
11:54 PM 66.0 °F - 60.1 °F 81% 30.01 in 10.0 mi Calm Calm - N/A   Clear